This demonstration page uses our WeatherBlox Daily Observations layout. Learn more.

Left ArrowRight Arrow

Hourly Observations for April 19, 2019

Temp ( °F °C ) Dew Point ( °F °C ) Humidity (%) Winds ( mph kmh ) Pressure ( in mb ) Visibility ( mi km ) Precip ( " mm )
12:10 am 00:10 Cloudy with Heavy Rain 65 18.3 62 16.7 90 90 WSW 15 24 29.79 1009 3 5 0.07 1.78
12:53 am 00:53 Cloudy with Rain 63 17.2 63 17.2 100 100 ESE 6 9 29.75 1007 6 10 0.28 7.11
1:24 am 01:24 Cloudy with Thunderstorms 63 17.2 63 17.2 100 100 E 9 15 29.70 1006 6 10 0.08 2.03
1:39 am 01:39 Cloudy with Rain 63 17.2 63 17.2 100 100 ESE 7 11 29.69 1005 6 10 0.13 3.30
1:53 am 01:53 Cloudy with Light Rain 63 17.2 63 17.2 100 100 Calm 29.62 1003 8 13 0.16 4.06
2:53 am 02:53 Cloudy with Light Rain 64 17.8 63 17.2 96 96 ESE 7 11 29.57 1001 10 16 0.00 0.03
3:15 am 03:15 Cloudy 65 18.3 64 17.8 97 97 VRB 6 9 29.56 1001 10 16 0.00 0.03
3:35 am 03:35 Cloudy with Nearby Thunderstorms 65 18.3 64 17.8 97 97 SE 8 13 29.54 1000 10 16 0.00 0.03
3:53 am 03:53 Cloudy with Nearby Thunderstorms 66 18.9 65 18.3 96 96 SE 8 13 29.53 1000 10 16 0.02 0.51
4:08 am 04:08 Cloudy with Thunderstorms 66 18.9 65 18.3 96 96 ESE 9 15 29.53 1000 5 8 0.05 1.27
4:15 am 04:15 Cloudy with Strong Thunderstorms 66 18.9 65 18.3 96 96 SSE 8 13 29.54 1000 4 6 0.08 2.03
4:26 am 04:26 Cloudy with Nearby Thunderstorms 66 18.9 66 18.9 100 100 Calm 29.54 1000 3 4 0.14 3.56
4:30 am 04:30 Cloudy with Strong Thunderstorms 65 18.3 65 18.3 100 100 VRB 5 7 29.54 1000 2 3 0.17 4.32
4:34 am 04:34 Cloudy with Strong Thunderstorms 65 18.3 65 18.3 100 100 WSW 12 19 29.58 1002 1 2 0.21 5.33
4:45 am 04:45 Cloudy with Strong Thunderstorms 66 18.9 66 18.9 100 100 S 18 30 29.57 1001 1 2 0.35 8.89
4:53 am 04:53 Cloudy with Strong Thunderstorms 66 18.9 66 18.9 100 100 S 13 20 29.54 1000 1 2 0.46 11.68
4:56 am 04:56 Cloudy with Strong Thunderstorms 66 18.9 66 18.9 100 100 S 15 24 29.57 1001 2 3 0.04 1.02
5:05 am 05:05 Cloudy with Thunderstorms 64 17.8 63 17.2 96 96 SSE 16 26 29.55 1001 4 6 0.16 4.06
5:50 am 05:50 Cloudy with Nearby Thunderstorms 63 17 63 17 100 100 VRB 3 6 29.54 1000 4 6 0.58 14.73
5:53 am 05:53 Cloudy with Nearby Thunderstorms 62 16.7 62 16.7 100 100 SE 5 7 29.53 1000 4 6 0.59 14.99
6:07 am 06:07 Cloudy with Heavy Rain 63 17.2 63 17.2 100 100 SE 8 13 29.55 1001 3 5 0.08 2.03
6:23 am 06:23 Cloudy with Nearby Thunderstorms 63 17.2 63 17.2 100 100 SE 8 13 29.52 1000 5 8 0.17 4.32
6:53 am 06:53 Cloudy with Rain 63 17.2 63 17.2 100 100 SE 8 13 29.52 1000 4 6 0.31 7.87
7:17 am 07:17 Cloudy with Heavy Rain 63 17.2 63 17.2 100 100 NNE 3 6 29.51 999 4 6 0.10 2.54
7:35 am 07:35 Cloudy with Rain 63 17.2 63 17.2 100 100 VRB 3 6 29.51 999 6 10 0.18 4.57
7:53 am 07:53 Cloudy with Rain 63 17.2 63 17.2 100 100 ESE 3 6 29.49 999 6 10 0.23 5.84
8:01 am 08:01 Cloudy with Rain 63 17.2 63 17.2 100 100 VRB 5 7 29.50 999 5 8 0.03 0.76
8:53 am 08:53 Cloudy with Rain 64 17.8 64 17.8 100 100 VRB 6 9 29.49 999 7 11 0.20 5.08
9:05 am 09:05 Cloudy with Heavy Rain 64 17.8 64 17.8 100 100 S 6 9 29.52 1000 2 3 0.06 1.52
9:40 am 09:40 Cloudy with Heavy Rain 64 17.8 64 17.8 100 100 ESE 6 9 29.49 998 4 6 0.25 6.35
9:53 am 09:53 Cloudy with Light Rain 64 17.8 64 17.8 100 100 ESE 6 9 29.47 998 4 6 0.31 7.87
10:00 am 10:00 Cloudy with Light Rain 65 18.3 65 18.3 100 100 SE 5 7 29.47 998 9 14 0.01 0.25
10:53 am 10:53 Cloudy with Rain 65 18.3 65 18.3 100 100 VRB 7 11 29.47 998 3 5 0.10 2.54
11:53 am 11:53 Cloudy 66 18.9 65 18.3 96 96 SW 7 11 29.46 998 10 16 0.02 0.51
12:53 pm 12:53 Mostly Cloudy 68 20 63 17.2 84 84 SW 10 17 29.44 997 10 16 0.00 0.03
1:53 pm 13:53 Mostly Cloudy 69 20.6 61 16.1 76 76 WSW 13 20 29.43 997 10 16 0.00 0.03
2:26 pm 14:26 Mostly Cloudy with Heavy Rain 66 18.9 60 15.6 81 81 SW 17 28 29.44 997 2 2 0.02 0.51
2:36 pm 14:36 Mostly Cloudy with Light Rain 62 16.7 59 15 90 90 WSW 14 22 29.46 998 3 5 0.10 2.54
2:53 pm 14:53 Cloudy 63 17.2 61 16.1 93 93 WSW 10 17 29.45 997 10 16 0.18 4.57
3:49 pm 15:49 Cloudy 63 17 57 14 83 83 SW 13 20 29.47 998 10 16 0.00 0.00
3:53 pm 15:53 Cloudy 63 17.2 58 14.4 84 84 SW 13 20 29.46 998 10 16 0.00 0.00
4:13 pm 16:13 Cloudy 63 17.2 56 13.3 78 78 WSW 7 11 29.47 998 10 16 0.00 0.00
4:26 pm 16:26 Cloudy with Light Rain 61 16.1 57 13.9 87 87 W 15 24 29.46 998 10 16 0.00 0.03
4:53 pm 16:53 Cloudy 60 15.6 54 12.2 80 80 SW 12 19 29.47 998 10 16 0.00 0.03
5:53 pm 17:53 Cloudy 59 15 51 10.6 75 75 WSW 15 24 29.49 999 10 16 0.00 0.03
6:53 pm 18:53 Cloudy 56 13.3 48 8.9 75 75 WSW 15 24 29.53 1000 10 16 0.00 0.00
7:36 pm 19:36 Cloudy 55 12.8 48 8.9 77 77 SW 13 20 29.57 1001 10 16 0.00 0.00
7:46 pm 19:46 Cloudy 54 12.2 47 8.3 77 77 WSW 16 26 29.57 1001 10 16 0.00 0.00
7:53 pm 19:53 Cloudy 54 12.2 47 8.3 77 77 WSW 15 24 29.56 1001 10 16 0.00 0.00
8:22 pm 20:22 Cloudy 52 11.1 47 8.3 83 83 W 16 26 29.61 1003 10 16 0.00 0.00
8:36 pm 20:36 Cloudy 52 11.1 46 7.8 80 80 W 15 24 29.62 1003 10 16 0.00 0.00
8:46 pm 20:46 Cloudy with Light Rain 52 11.1 46 7.8 80 80 WSW 12 19 29.62 1003 10 16 0.00 0.03
8:53 pm 20:53 Cloudy 51 10.6 46 7.8 83 83 WSW 13 20 29.61 1003 10 16 0.00 0.03
9:53 pm 21:53 Mostly Clear 49 9.4 42 5.6 77 77 WSW 12 19 29.63 1004 10 16 0.00 0.00
10:53 pm 22:53 Partly Cloudy 48 8.9 41 5 77 77 WSW 9 15 29.65 1004 10 16 0.00 0.00
11:01 pm 23:01 Mostly Cloudy 48 8.9 41 5 77 77 W 12 19 29.67 1005 10 16 0.00 0.00
11:43 pm 23:43 Partly Cloudy 47 8.3 42 5.6 83 83 WSW 8 13 29.68 1005 10 16 0.00 0.00
11:51 pm 23:51 Mostly Cloudy 46 8 43 6 87 87 WSW 8 13 29.69 1005 10 16 0.00 0.00

Powered by AerisWeather